Wind_Speed
33 35 37 38 39 39 38 37 34 33 33 32 31 30 27 26 24 22 21 20 21 22 20 19 20 21 21 21 22 23 24 25 25 24 22 22 21 22 24 22 20 22 22 21
34 35 35 36 36 35 33 32 32 32 33 32 31 31 30 27 25 24 22 21 22 23 23 22 23 22 21 23 25 25 25 25 25 25 25 24 24 24 25 25 24 24 25 24
29 33 36 37 34 31 30 31 32 32 31 29 29 28 28 27 26 26 24 22 23 24 25 25 24 22 22 25 27 26 26 27 27 28 28 28 28 29 30 30 30 28 28 27
28 30 31 32 31 30 32 34 34 34 32 32 30 29 27 27 27 27 26 24 25 25 26 25 25 23 24 25 27 27 29 30 29 30 31 31 31 32 32 31 31 30 29 28
25 25 26 26 28 30 33 34 33 33 33 32 30 30 28 27 28 27 27 27 27 26 26 26 25 25 25 27 29 30 32 31 31 31 31 32 32 33 33 31 30 28 27 27
23 24 25 26 27 28 29 29 29 29 30 29 26 27 25 23 24 24 26 27 26 24 24 24 24 25 26 28 30 30 30 30 30 30 30 31 32 32 31 29 27 25 24 24
22 25 27 28 29 30 29 28 28 28 27 27 27 27 25 23 22 22 23 24 23 22 23 23 24 26 27 29 29 29 29 29 29 28 28 28 29 30 28 26 24 22 21 21
22 24 28 29 30 30 30 29 28 29 29 29 28 27 26 25 25 24 22 21 21 21 22 23 25 27 28 29 29 29 29 28 28 27 26 25 24 25 25 23 21 18 16 15
23 23 25 26 26 27 29 30 31 31 31 30 29 27 26 26 26 24 22 21 21 21 22 24 26 27 27 28 27 26 26 27 27 26 26 24 22 21 22 21 18 16 14 13
26 25 23 23 23 24 25 27 29 30 32 32 32 32 28 26 26 25 24 23 23 23 24 25 27 27 26 27 26 24 23 25 27 26 25 23 20 19 19 17 15 14 13 14
26 25 23 23 24 24 25 27 29 30 31 30 30 31 28 23 22 22 24 25 26 26 25 25 25 25 25 26 25 22 22 25 26 25 23 21 19 17 16 15 13 12 12 14
24 24 24 24 25 26 27 28 29 30 30 28 28 28 26 21 21 23 25 27 28 28 26 25 24 23 23 25 25 23 23 25 26 24 21 19 18 17 17 16 15 13 13 14
23 23 23 23 24 26 27 29 30 30 31 33 32 29 25 22 24 27 29 31 30 27 25 24 23 23 25 25 24 22 24 26 26 23 20 18 18 18 19 19 19 18 17 17
22 22 23 22 22 22 22 24 30 32 31 32 33 33 31 30 30 31 31 29 28 25 23 22 22 25 25 25 25 25 26 27 25 22 21 20 20 21 21 22 22 22 21 20
22 22 24 23 22 20 18 16 18 25 30 33 34 35 33 34 35 35 34 32 29 25 24 23 24 24 24 24 26 27 28 26 23 22 22 23 23 23 23 23 23 23 23 22
22 21 24 23 22 19 17 18 17 17 21 25 26 28 30 31 31 31 32 32 29 27 27 27 27 27 25 25 26 27 25 23 22 22 23 24 23 23 22 21 20 21 22 22
22 20 20 21 20 16 16 15 14 15 15 16 18 21 23 25 25 24 25 27 28 29 29 28 27 26 25 25 24 23 21 20 21 22 23 23 23 24 23 22 21 21 22 23
21 17 16 16 15 13 13 11 9 9 11 12 15 18 17 16 15 16 17 19 20 21 22 22 21 20 20 19 19 19 19 20 21 22 23 23 24 25 25 25 24 23 23 24
18 11 10 12 14 12 13 13 11 9 9 10 11 12 10 7 6 8 10 12 12 12 11 9 9 11 13 16 17 18 19 20 20 21 23 25 26 26 25 25 25 24 24 24
16 7 9 12 14 14 16 16 14 12 12 9 8 6 4 3 4 5 7 7 7 7 6 6 8 11 14 16 16 17 18 19 21 22 24 24 24 24 23 22 22 22 23 23
15 9 12 14 15 16 17 20 18 17 16 14 11 7 4 4 4 5 5 6 7 7 8 9 11 13 14 15 15 16 17 18 20 21 22 22 22 21 20 18 17 18 19 21
15 13 17 18 17 17 17 23 25 21 18 17 14 9 7 6 5 4 5 6 7 9 11 11 12 11 12 12 13 14 16 18 19 20 20 19 18 18 16 15 14 15 17 19
16 12 17 22 21 18 13 23 27 23 21 19 14 11 9 6 5 4 4 5 7 10 12 12 10 9 9 10 11 13 15 16 17 18 17 15 14 13 12 12 14 16 20 24
18 12 14 22 25 21 14 19 25 23 22 19 14 11 10 7 5 3 3 5 8 10 10 9 8 8 8 9 11 14 15 16 15 14 13 12 11 10 12 14 17 21 25 27
20 13 11 18 24 23 15 17 23 25 24 19 13 11 10 7 5 2 3 6 9 10 9 7 7 7 8 10 12 14 14 14 13 12 11 10 10 11 14 16 18 20 22 21
22 14 9 13 21 24 18 15 19 25 26 18 13 11 9 6 3 2 3 6 10 11 11 9 8 8 8 10 11 12 13 13 13 11 10 10 10 11 12 13 15 17 17 16
Wind_Direction
244 247 249 250 251 252 256 259 261 260 261 262 263 263 263 263 263 266 267 264 266 271 279 285 290 291 290 287 287 288 282 281 281 280 279 280 284 284 281 277 278 280 275 271
253 256 253 252 252 253 257 261 262 260 261 262 264 264 263 261 254 259 262 259 264 271 278 286 288 287 286 284 285 287 285 284 284 285 284 282 279 277 277 277 276 277 273 266
261 261 258 253 254 258 261 263 261 260 263 265 265 262 261 256 251 255 256 255 262 270 277 284 286 284 282 283 285 289 289 291 290 289 287 284 280 275 274 275 275 274 270 264
268 270 265 258 253 255 259 261 262 261 261 262 263 261 256 254 253 254 255 256 263 270 276 281 281 280 280 283 288 292 294 295 292 289 286 284 281 278 276 274 275 272 264 259
265 268 271 270 266 262 259 259 259 258 258 258 258 261 256 252 251 251 255 260 264 269 275 278 279 279 282 287 291 293 293 293 291 288 286 284 282 279 279 277 274 270 262 257
260 257 256 256 259 259 258 257 253 251 252 255 254 256 254 243 242 251 258 262 265 268 271 274 275 279 286 291 294 295 295 294 292 288 286 283 281 279 278 276 272 269 264 257
263 257 251 248 250 253 255 255 254 256 259 261 257 255 253 247 250 259 261 259 261 263 266 271 275 282 288 293 295 295 295 295 293 292 290 287 280 276 274 272 268 265 262 258
275 272 266 259 253 252 252 251 252 254 260 264 263 262 258 258 263 264 260 258 259 262 268 275 280 286 291 293 294 295 297 298 296 294 296 296 284 273 268 266 263 260 255 254
284 280 278 273 266 257 255 253 252 255 257 259 261 261 260 261 261 261 259 259 263 268 274 279 282 286 289 291 292 295 298 298 299 297 299 300 290 275 265 261 257 252 251 254
288 283 278 275 270 263 256 256 259 260 260 259 257 258 264 264 263 262 262 262 265 269 275 278 280 282 285 286 289 294 300 300 303 302 299 296 289 276 267 261 253 248 251 256
289 285 278 270 267 265 260 254 255 259 260 259 261 264 262 264 261 261 262 262 264 267 271 275 278 282 284 286 288 292 301 306 305 303 300 294 288 279 269 262 256 254 256 258
286 283 278 270 264 261 259 256 254 254 253 254 257 260 263 261 262 264 264 263 262 264 268 271 274 280 286 290 290 288 297 306 307 302 300 296 289 281 273 267 265 267 271 271
285 279 278 275 267 260 260 258 256 254 252 253 256 261 263 265 266 266 266 266 262 263 266 268 271 279 284 287 288 289 295 303 303 297 292 290 287 281 276 273 274 276 277 277
283 269 268 271 269 265 265 262 254 253 254 254 257 263 270 273 270 268 268 269 266 265 264 267 275 282 280 277 282 290 296 299 296 288 283 284 285 282 280 278 277 278 277 274
289 265 258 261 267 268 262 268 256 251 254 257 260 264 270 273 272 268 268 270 269 266 262 265 272 277 276 276 280 287 293 294 289 280 279 282 285 285 285 282 278 276 274 272
298 274 258 254 260 265 261 261 263 262 259 261 265 267 270 273 270 267 264 264 265 264 264 267 271 272 275 280 282 286 287 285 281 277 279 283 285 286 287 285 280 276 273 270
306 285 262 248 252 257 255 256 257 261 261 262 266 270 274 275 273 268 261 258 260 263 267 271 272 270 274 277 279 281 280 278 277 279 284 286 288 290 291 288 281 275 270 267
317 292 263 241 237 241 237 239 244 252 259 265 271 278 285 283 273 263 258 256 258 263 268 270 269 269 272 275 278 281 282 281 283 288 290 290 292 293 294 291 285 277 270 266
331 303 254 229 227 232 229 225 232 240 246 247 253 277 300 297 266 247 248 252 257 259 256 256 262 271 276 280 282 285 289 291 293 294 293 293 294 295 293 289 285 280 274 269
330 296 229 215 217 229 227 222 225 224 230 223 212 236 281 273 220 230 232 239 236 233 241 260 275 282 285 287 288 291 295 296 295 295 295 296 296 295 293 289 284 281 278 274
319 269 228 219 225 234 230 218 215 216 222 228 211 202 217 217 227 229 224 226 235 250 263 274 282 287 289 289 289 291 295 297 298 299 300 299 297 295 294 292 288 285 283 281
315 267 236 228 231 224 218 203 207 215 219 223 221 225 228 224 222 219 224 241 258 269 273 278 282 286 290 292 294 297 303 306 307 305 304 302 301 299 296 291 289 290 292 292
330 283 246 237 236 212 193 185 197 208 217 225 235 244 241 232 218 220 241 268 280 282 284 286 289 296 303 306 307 310 314 316 315 312 309 307 307 303 295 291 294 299 302 302
348 315 264 246 240 230 209 184 193 205 216 227 239 244 242 224 207 217 265 292 295 296 298 302 305 309 312 316 317 319 322 323 321 317 313 311 312 306 300 300 305 309 312 311
352 336 283 253 240 238 226 192 191 203 216 226 232 238 231 215 210 232 292 310 314 314 315 312 310 314 317 319 321 324 328 329 326 323 321 319 318 314 311 314 318 323 328 329
357 348 305 256 237 235 231 211 198 202 212 219 224 232 227 227 226 251 306 324 329 327 323 320 322 326 324 323 325 329 333 337 338 334 331 328 329 330 331 335 339 343 347 350
Height
5849 5851 5851 5852 5853 5855 5856 5858 5860 5860 5859 5862 5863 5865 5866 5865 5865 5865 5864 5864 5863 5863 5863 5862 5862 5861 5860 5859 5858 5856 5855 5853 5852 5850 5849 5847 5845 5844 5843 5843 5840 5838 5837 5836
5845 5844 5844 5844 5846 5847 5849 5851 5852 5852 5852 5854 5855 5857 5859 5859 5859 5858 5859 5859 5858 5858 5858 5857 5857 5856 5855 5854 5852 5851 5850 5848 5846 5845 5844 5842 5840 5839 5837 5837 5836 5834 5832 5831
5838 5838 5838 5839 5840 5841 5842 5844 5844 5845 5846 5847 5849 5851 5852 5852 5852 5852 5853 5853 5853 5853 5852 5852 5852 5851 5850 5848 5847 5845 5843 5842 5840 5839 5838 5836 5835 5833 5831 5830 5829 5828 5827 5825
5832 5832 5832 5832 5833 5833 5835 5835 5837 5838 5840 5841 5842 5843 5845 5845 5846 5846 5847 5848 5848 5848 5848 5847 5846 5845 5844 5843 5841 5839 5837 5835 5834 5833 5831 5830 5829 5826 5824 5823 5821 5820 5819 5818
5826 5826 5826 5826 5826 5826 5828 5829 5830 5831 5832 5833 5835 5835 5838 5838 5839 5840 5840 5841 5842 5842 5842 5841 5840 5839 5837 5836 5834 5833 5831 5830 5828 5825 5824 5823 5821 5818 5817 5816 5814 5812 5812 5812
5819 5819 5819 5820 5820 5821 5822 5823 5823 5824 5824 5826 5828 5828 5830 5831 5832 5833 5834 5835 5835 5835 5835 5835 5834 5833 5831 5829 5828 5827 5826 5824 5822 5819 5817 5815 5813 5811 5809 5808 5807 5806 5806 5806
5813 5812 5812 5813 5813 5814 5816 5818 5819 5819 5819 5820 5821 5822 5823 5824 5826 5827 5828 5829 5829 5829 5829 5829 5828 5827 5826 5824 5823 5821 5819 5818 5815 5813 5810 5807 5805 5803 5802 5801 5801 5800 5800 5800
5807 5806 5805 5805 5807 5807 5808 5810 5813 5814 5814 5814 5814 5816 5817 5818 5819 5821 5822 5822 5823 5823 5823 5823 5823 5821 5820 5819 5817 5815 5813 5811 5808 5806 5803 5801 5798 5797 5795 5795 5795 5795 5794 5794
5800 5800 5797 5797 5798 5800 5800 5802 5804 5806 5806 5808 5809 5810 5812 5812 5813 5814 5815 5816 5817 5817 5817 5817 5816 5815 5814 5812 5811 5809 5807 5805 5802 5799 5798 5795 5793 5791 5790 5790 5790 5790 5789 5789
5793 5793 5792 5790 5791 5792 5794 5794 5796 5798 5800 5801 5803 5803 5806 5807 5808 5809 5809 5809 5810 5810 5810 5810 5810 5809 5807 5806 5804 5803 5801 5799 5796 5793 5792 5789 5787 5786 5786 5785 5785 5785 5785 5785
5787 5786 5786 5785 5784 5785 5787 5788 5789 5791 5792 5795 5796 5799 5799 5801 5801 5802 5802 5803 5803 5803 5803 5803 5802 5802 5801 5800 5798 5797 5796 5793 5790 5788 5786 5784 5782 5781 5781 5781 5781 5781 5781 5781
5779 5779 5778 5778 5778 5778 5779 5780 5782 5784 5785 5787 5789 5794 5791 5793 5794 5794 5795 5796 5796 5796 5796 5796 5796 5796 5796 5795 5793 5792 5791 5788 5786 5783 5781 5779 5778 5777 5776 5776 5776 5776 5776 5776
5772 5772 5771 5770 5772 5771 5771 5771 5773 5775 5777 5778 5780 5785 5783 5786 5786 5787 5788 5789 5790 5790 5790 5790 5790 5790 5790 5789 5788 5787 5785 5783 5781 5778 5776 5775 5774 5773 5772 5771 5770 5770 5771 5771
5765 5765 5765 5764 5762 5763 5764 5763 5764 5767 5769 5771 5773 5775 5777 5777 5778 5779 5781 5782 5784 5785 5785 5785 5784 5784 5784 5783 5782 5781 5779 5777 5775 5773 5771 5770 5769 5768 5767 5766 5764 5764 5764 5765
5757 5757 5756 5756 5756 5756 5758 5758 5758 5759 5762 5764 5766 5767 5769 5768 5768 5770 5773 5775 5776 5778 5779 5779 5779 5778 5778 5777 5776 5775 5773 5771 5769 5768 5766 5765 5764 5762 5761 5760 5759 5758 5758 5759
5749 5748 5749 5750 5751 5752 5753 5753 5753 5754 5755 5756 5758 5760 5760 5759 5759 5761 5763 5765 5768 5769 5770 5772 5773 5773 5772 5771 5770 5768 5766 5764 5763 5762 5761 5760 5758 5756 5755 5754 5752 5752 5751 5752
5741 5740 5741 5744 5746 5748 5749 5749 5750 5750 5751 5752 5753 5754 5753 5752 5752 5753 5755 5757 5760 5762 5764 5765 5765 5765 5765 5764 5762 5761 5760 5759 5758 5756 5754 5753 5751 5749 5748 5747 5746 5745 5745 5745
5735 5733 5734 5738 5743 5745 5747 5746 5747 5748 5748 5749 5749 5749 5748 5747 5747 5748 5750 5752 5755 5757 5759 5759 5759 5759 5758 5758 5757 5756 5755 5754 5751 5749 5747 5745 5744 5742 5740 5738 5737 5737 5737 5737
5729 5729 5730 5734 5738 5741 5742 5743 5744 5746 5747 5747 5747 5747 5746 5745 5745 5746 5748 5750 5752 5754 5754 5754 5755 5755 5755 5754 5753 5752 5750 5748 5746 5744 5742 5739 5737 5734 5732 5730 5729 5728 5728 5728
5727 5726 5728 5730 5733 5737 5738 5740 5742 5745 5745 5746 5745 5745 5746 5745 5745 5747 5748 5749 5751 5752 5752 5752 5752 5752 5752 5750 5749 5747 5745 5743 5741 5739 5736 5733 5730 5727 5725 5724 5722 5721 5720 5719
5723 5722 5723 5725 5728 5730 5733 5735 5739 5742 5744 5743 5744 5745 5746 5746 5747 5748 5748 5749 5750 5751 5751 5751 5750 5749 5748 5746 5744 5743 5741 5739 5736 5733 5730 5727 5724 5721 5719 5718 5716 5714 5713 5712
5717 5716 5717 5719 5721 5725 5725 5729 5734 5736 5738 5740 5742 5744 5745 5747 5747 5748 5748 5749 5749 5750 5750 5749 5747 5745 5744 5742 5741 5739 5737 5734 5731 5728 5724 5721 5718 5716 5714 5712 5711 5709 5707 5705
5713 5712 5711 5713 5715 5717 5718 5721 5728 5732 5735 5738 5741 5743 5745 5746 5747 5747 5747 5748 5748 5749 5748 5746 5744 5742 5741 5739 5737 5735 5733 5730 5726 5723 5719 5717 5714 5712 5710 5708 5706 5704 5701 5697
5711 5708 5708 5709 5711 5713 5715 5719 5726 5730 5733 5737 5740 5742 5744 5745 5746 5746 5747 5747 5748 5747 5745 5743 5741 5740 5738 5736 5735 5732 5729 5726 5722 5719 5716 5713 5711 5709 5707 5705 5702 5699 5694 5688
5711 5707 5706 5707 5709 5712 5714 5718 5723 5728 5731 5735 5739 5742 5744 5745 5746 5746 5746 5746 5746 5745 5743 5741 5740 5738 5736 5734 5732 5729 5726 5723 5719 5716 5713 5710 5708 5706 5704 5701 5698 5693 5687 5680
5709 5706 5704 5704 5707 5711 5714 5717 5721 5725 5729 5734 5738 5741 5743 5744 5745 5745 5745 5745 5745 5744 5742 5740 5739 5736 5734 5732 5730 5727 5724 5720 5717 5713 5710 5708 5706 5703 5701 5698 5694 5689 5684 5678